Location: Altenst�hlen
(53.5567°N, 8.9425°E)
Time: 05:09:27
(UTC+00:00)

Cosmos 44 - Pass Details

Date: 23 October 2019
Orbit: 593 x 769 km, 65.1° (Epoch: 21 November)

Event Time Altitude Azimuth Distance (km) Brightness Sun altitude
Rises 18:37:44 0° 218° (SW) 3,078 7.0 -22.4°
Reaches altitude 10° 18:40:08 10° 217° (SW) 2,135 6.1 -22.8°
Maximum altitude 18:44:58 79° 131° (SE) 681 3.0 -23.5°
Enters shadow 18:45:13 76° 94° (E) 687 3.0 -23.5°
